Terug naar catalogus

NOAA 11

ActiefWeerSSO
NORAD 19531·PAYLOAD·🇺🇸 United States

Gelanceerd Sep 24, 1988 vanaf Vandenberg Space Force Base

Loading…

Volgende Passages (komende 24 uur)

TLE

VersSource: Space-Track

Epoch: Sep 14, 2026, 07:58 UTC

1 19531U 88089A   26257.33238951  .00000018  00000-0  30618-4 0  9999
2 19531  98.6262 200.2403 0011920  46.4310 313.7852 14.15850273960095

Volg NOAA 11 in realtime met AllMySat

Download on the App Store